LRBO Weather Reports


Display with metric or nautical units.
time (UTC)temp
F
wind
direction
speed
MPH
gust
MPH
rain 1hr
in
rain 24hr
in
rain mn
in
humidity
%
barometer
mb
20260902143354 84 350 7.0 0.0 0.00 0.00 0.00 37 1018.0
20260902141851 84 350 7.0 0.0 0.00 0.00 0.00 37 1018.0
20260902140353 84 350 7.0 0.0 0.00 0.00 0.00 37 1018.0
20260902134854 84 60 9.0 0.0 0.00 0.00 0.00 40 1018.0
20260902133353 84 60 9.0 0.0 0.00 0.00 0.00 40 1018.0
20260902131853 84 60 9.0 0.0 0.00 0.00 0.00 40 1018.0
20260902130354 0 0.0 0.0 0.00 0.00 0.00
20260902124855 84 360 9.0 0.0 0.00 0.00 0.00 40 1019.0
20260902123354 84 360 9.0 0.0 0.00 0.00 0.00 40 1019.0
20260902121854 84 360 9.0 0.0 0.00 0.00 0.00 40 1019.0
20260902120354 84 360 9.0 0.0 0.00 0.00 0.00 40 1019.0
20260902114853 82 40 11.0 0.0 0.00 0.00 0.00 42 1019.0
20260902113354 82 40 11.0 0.0 0.00 0.00 0.00 42 1019.0
20260902111851 82 40 11.0 0.0 0.00 0.00 0.00 42 1019.0
20260902110354 82 40 11.0 0.0 0.00 0.00 0.00 42 1019.0
20260902104854 79 40 14.0 0.0 0.00 0.00 0.00 45 1020.0
20260902103353 79 40 14.0 0.0 0.00 0.00 0.00 45 1020.0
20260902101853 79 40 14.0 0.0 0.00 0.00 0.00 45 1020.0
20260902100400 79 40 14.0 0.0 0.00 0.00 0.00 45 1020.0
20260902094853 75 40 14.0 0.0 0.00 0.00 0.00 50 1020.0
20260902093353 75 40 14.0 0.0 0.00 0.00 0.00 50 1020.0
20260902091854 75 40 14.0 0.0 0.00 0.00 0.00 50 1020.0
20260902090502 0 0.0 0.0 0.00 0.00 0.00
20260902084853 75 20 16.0 0.0 0.00 0.00 0.00 50 1020.0
20260902083354 75 20 16.0 0.0 0.00 0.00 0.00 50 1020.0
20260902081854 75 20 16.0 0.0 0.00 0.00 0.00 50 1020.0
20260902080354 75 20 16.0 0.0 0.00 0.00 0.00 50 1020.0
20260902074930 75 20 14.0 0.0 0.00 0.00 0.00 57 1020.0
20260902073354 75 20 14.0 0.0 0.00 0.00 0.00 57 1020.0
20260902071851 75 20 14.0 0.0 0.00 0.00 0.00 57 1020.0
20260902070353 75 20 14.0 0.0 0.00 0.00 0.00 57 1020.0
20260902064851 72 20 11.0 0.0 0.00 0.00 0.00 69 1019.0
20260902063354 72 20 11.0 0.0 0.00 0.00 0.00 69 1019.0
20260902061854 72 20 11.0 0.0 0.00 0.00 0.00 69 1019.0
20260902060353 72 20 11.0 0.0 0.00 0.00 0.00 69 1019.0
20260902054850 0 0.0 0.0 0.00 0.00 0.00
20260902053354 0 0.0 0.0 0.00 0.00 0.00
20260902051851 0 0.0 0.0 0.00 0.00 0.00
20260902050355 0 0.0 0.0 0.00 0.00 0.00
20260902044851 64 30 9.0 0.0 0.00 0.00 0.00 88 1019.0
20260902043351 64 30 9.0 0.0 0.00 0.00 0.00 88 1019.0
20260902041853 64 30 9.0 0.0 0.00 0.00 0.00 88 1019.0
20260902040358 64 30 9.0 0.0 0.00 0.00 0.00 88 1019.0
20260902034851 63 40 9.0 0.0 0.00 0.00 0.00 94 1019.0
20260902033352 63 40 9.0 0.0 0.00 0.00 0.00 94 1019.0
20260902031850 63 40 9.0 0.0 0.00 0.00 0.00 94 1019.0
20260902030353 63 40 9.0 0.0 0.00 0.00 0.00 94 1019.0
20260902024850 61 10 11.0 0.0 0.00 0.00 0.00 88 1019.0
20260902023350 61 10 11.0 0.0 0.00 0.00 0.00 88 1019.0
20260902021855 61 10 11.0 0.0 0.00 0.00 0.00 88 1019.0
20260902020354 61 10 11.0 0.0 0.00 0.00 0.00 88 1019.0
20260902014853 63 30 9.0 0.0 0.00 0.00 0.00 88 1018.0
20260902013353 63 30 9.0 0.0 0.00 0.00 0.00 88 1018.0
20260902011850 63 30 9.0 0.0 0.00 0.00 0.00 88 1018.0
20260902010353 63 30 9.0 0.0 0.00 0.00 0.00 88 1018.0
20260902004853 63 30 9.0 0.0 0.00 0.00 0.00 88 1018.0
20260902003353 64 50 7.0 0.0 0.00 0.00 0.00 83 1018.0
20260902001851 64 50 7.0 0.0 0.00 0.00 0.00 83 1018.0
20260902000400 64 50 7.0 0.0 0.00 0.00 0.00 83 1018.0
20260901234855 0 0.0 0.0 0.00 0.00 0.00
20260901233354 0 0.0 0.0 0.00 0.00 0.00
20260901231854 0 0.0 0.0 0.00 0.00 0.00
20260901230410 0 0.0 0.0 0.00 0.00 0.00
20260901224855 70 20 11.0 0.0 0.00 0.00 0.00 69 1018.0
20260901223354 70 20 11.0 0.0 0.00 0.00 0.00 69 1018.0
20260901221853 70 20 11.0 0.0 0.00 0.00 0.00 69 1018.0
20260901220353 70 20 11.0 0.0 0.00 0.00 0.00 69 1018.0
20260901214855 70 20 11.0 0.0 0.00 0.00 0.00 69 1018.0
20260901213506 0 0.0 0.0 0.00 0.00 0.00
20260901211853 72 10 9.0 0.0 0.00 0.00 0.00 65 1018.0
20260901210423 72 10 9.0 0.0 0.00 0.00 0.00 65 1018.0
20260901204855 72 30 9.0 0.0 0.00 0.00 0.00 69 1018.0
20260901203425 72 30 9.0 0.0 0.00 0.00 0.00 69 1018.0
20260901201854 72 30 9.0 0.0 0.00 0.00 0.00 69 1018.0
20260901200353 72 30 9.0 0.0 0.00 0.00 0.00 69 1018.0
20260901195015 0 0.0 0.0 0.00 0.00 0.00
20260901193416 73 20 9.0 0.0 0.00 0.00 0.00 61 1017.0
20260901191917 73 20 9.0 0.0 0.00 0.00 0.00 61 1017.0
20260901190408 73 20 9.0 0.0 0.00 0.00 0.00 61 1017.0
20260901184854 73 10 9.0 0.0 0.00 0.00 0.00 57 1017.0
20260901183353 73 10 9.0 0.0 0.00 0.00 0.00 57 1017.0
20260901181854 73 10 9.0 0.0 0.00 0.00 0.00 57 1017.0
20260901180354 73 10 9.0 0.0 0.00 0.00 0.00 57 1017.0
20260901174853 81 10 9.0 0.0 0.00 0.00 0.00 48 1016.0
20260901173354 81 10 9.0 0.0 0.00 0.00 0.00 48 1016.0
20260901171854 81 10 9.0 0.0 0.00 0.00 0.00 48 1016.0
20260901170354 81 10 9.0 0.0 0.00 0.00 0.00 48 1016.0
20260901164854 84 20 9.0 0.0 0.00 0.00 0.00 40 1015.0
20260901163401 84 20 9.0 0.0 0.00 0.00 0.00 40 1015.0
20260901161853 84 20 9.0 0.0 0.00 0.00 0.00 40 1015.0
20260901160358 84 20 9.0 0.0 0.00 0.00 0.00 40 1015.0
20260901154853 86 3.0 0.0 0.00 0.00 0.00 40 1015.0
20260901153354 86 3.0 0.0 0.00 0.00 0.00 40 1015.0
20260901151853 86 3.0 0.0 0.00 0.00 0.00 40 1015.0
20260901150353 86 3.0 0.0 0.00 0.00 0.00 40 1015.0
20260901144932 90 3.0 0.0 0.00 0.00 0.00 36 1015.0